Regional Weather Roundup
Issued by NWS

Home | Current Version | Previous Version | Graphics & Text | Print | Product List | Glossary On
Versions: 1 2 3 4 5 6 7 8 9 10 11 12 13 14 15 16 17 18 19 20 21 22 23 24 25 26 27 28 29 30 31 32 33 34 35 36 37 38 39 40 41 42 43 44 45 46 47 48 49 50
000
ASUS43 KIND 241159
RWRIN

WEATHER ROUNDUP FOR INDIANA
NATIONAL WEATHER SERVICE INDIANAPOLIS IN
800 AM EDT WED MAY 24 2017

NOTE: "FAIR" INDICATES FEW OR NO CLOUDS BELOW 12,000 FEET WITH NO
SIGNIFICANT WEATHER AND/OR OBSTRUCTIONS TO VISIBILITY.

* - STATION DOES NOT REPORT WEATHER SUCH AS PRECIPITATION OR FOG.

+ - STATION NOT QUALITY CONTROLLED BY THE NATIONAL WEATHER SERVICE.
    USE DATA WITH CAUTION...ESPECIALLY DEWPOINT AND RELATIVE
    HUMIDITY OBSERVATIONS.

INZ001>003-010>013-019-020-241300-
NORTHWEST INDIANA

CITY           SKY/WX    TMP DP  RH WIND       PRES   REMARKS
GARY /AIRPORT/ LGT RAIN  54  52  94 N7        29.58F
MICHIGAN CITY+ CLOUDY    52  52 100 N6        29.58S FOG
MONTICELLO +   CLOUDY    57  55  91 NE8       29.53R
6HR MIN TEMP:  56; 6HR MAX TEMP:  58;

RENSSELAER +   DRIZZLE   57  54  88 N7        29.55S

$$

LMZ046-743>745-241300-
SOUTHERN LAKE MICHIGAN

STATION/POSITION TIME  TEMP    WIND        PRES    WAVE
                       AIR SEA DIR/SP/G            HT
                 (UTC) (F)     (DEG/KT/KT) (MB)    (FT)
BURNS HARBOR     1140   53      30/ 16/ 18 1001.7F
MICHIGAN CITY    1130   52     360/ 18/ 19   N/A
5NW MICH CITY    1150   52 53   20/ 14/ 17   N/A     2

$$

INZ004-005-014>016-021>024-241300-
NORTH CENTRAL INDIANA

CITY           SKY/WX    TMP DP  RH WIND       PRES   REMARKS
ELKHART        SUNNY     57  52  82 E10       29.55F
GOSHEN         CLOUDY    57  51  80 E6        29.55F
6HR MIN TEMP:  56; 6HR MAX TEMP:  59;

SOUTH BEND     CLOUDY    57  54  89 N5        29.57R
6HR MIN TEMP:  54; 6HR MAX TEMP:  57; 6HR PCP: TRACE;


$$

INZ006>009-017-018-025>027-241300-
NORTHEAST INDIANA

CITY           SKY/WX    TMP DP  RH WIND       PRES   REMARKS
ANGOLA *+      MOSUNNY   57  54  88 E7        29.56F
FORT WAYNE     CLOUDY    58  52  80 E9        29.55S
6HR MIN TEMP:  57; 6HR MAX TEMP:  61; 6HR PCP:  0.02;

KENDALLVILLE + CLOUDY    57  52  83 E5        29.56F

$$

INZ028-029-035-036-043>045-051>053-241300-
WEST CENTRAL INDIANA

CITY           SKY/WX    TMP DP  RH WIND       PRES   REMARKS
CRAWFORDSVL +  CLOUDY    55  55 100 N7        29.54F FOG
6HR MIN TEMP:  54; 6HR MAX TEMP:  57;

GREENCASTLE +  CLOUDY    55  54  94 NW3       29.54F
LAFAYETTE      CLOUDY    58  55  90 N5        29.54R
6HR MIN TEMP:  56; 6HR MAX TEMP:  58;

TERRE HAUTE    LGT RAIN  58  54  86 NW7       29.55R
6HR MIN TEMP:  58; 6HR MAX TEMP:  62; 6HR PCP:  0.01;


$$

INZ030>032-037>040-046>048-054>057-064-065-241300-
CENTRAL INDIANA

CITY           SKY/WX    TMP DP  RH WIND       PRES   REMARKS
COLUMBUS       CLOUDY    59  55  88 CALM      29.53S
INDIANAPOLIS   LGT RAIN  59  56  89 N6        29.53F FOG
6HR MIN TEMP:  58; 6HR MAX TEMP:  64; 6HR PCP: TRACE;

-EAGLE CREEK   LGT RAIN  59  56  89 NW3       29.53S FOG
6HR MIN TEMP:  59; 6HR MAX TEMP:  64; 6HR PCP: TRACE;

KOKOMO +       CLOUDY    57  54  89 CALM      29.55R
6HR MIN TEMP:  55; 6HR MAX TEMP:  61; 6HR PCP: TRACE;

SHELBYVILLE    CLOUDY    62  55  77 CALM      29.52S
6HR MIN TEMP:  60; 6HR MAX TEMP:  64; 6HR PCP: TRACE;


$$

INZ033-034-041-042-049-050-058-059-241300-
EAST CENTRAL INDIANA

CITY           SKY/WX    TMP DP  RH WIND       PRES   REMARKS
MUNCIE         CLOUDY    62  53  72 S3        29.55R
6HR MIN TEMP:  60; 6HR MAX TEMP:  65; 6HR PCP: TRACE;

RICHMOND +     PTSUNNY   59  55  88 E6        29.56R

$$

INZ060-061-067>069-081>083-085>088-241300-
SOUTHWEST INDIANA

CITY           SKY/WX    TMP DP  RH WIND       PRES   REMARKS
EVANSVILLE     LGT RAIN  60  57  89 N5        29.54F FOG
6HR MIN TEMP:  60; 6HR MAX TEMP:  66; 6HR PCP:  0.19;

HUNTINGBURG *+ LGT RAIN  58  57  97 NW5       29.54F
6HR MIN TEMP:  58; 6HR MAX TEMP:  63; 6HR PCP:  0.05;


$$

INZ062-063-066-070>080-084-089>092-241300-
SOUTH CENTRAL AND SOUTHEAST INDIANA

CITY           SKY/WX    TMP DP  RH WIND       PRES   REMARKS
BLOOMINGTON    CLOUDY    58  54  86 VRB3      29.52F
6HR MIN TEMP:  58; 6HR MAX TEMP:  62; 6HR PCP:  0.01;

MADISON *+     CLOUDY    59  59 100 CALM      29.53F
SEYMOUR +      CLOUDY    61  59  94 CALM      29.51F

$$





USA.gov is the U.S. government's official web portal to all federal, state and local government web resources and services.